Regional Weather Roundup
Issued by NWS Wakefield, VA

Home | Current Version | Previous Version | Text Only | Print | Product List | Glossary Off
Versions: 1 2 3 4 5 6 7 8 9 10 11 12 13 14 15 16 17 18 19 20 21 22 23 24 25 26 27

000
ASUS41 KAKQ 191414
RWRAKQ

REGIONAL WEATHER ROUNDUP
NATIONAL WEATHER SERVICE WAKEFIELD VA
900 AM EST SUN FEB 19 2017

Note: "fair" indicates few or no clouds below 12,000 feet with no
significant weather and/or obstructions to visibility. * = Denotes
station may not report precipitation (e.g., rain,snow,etc.),
thunder or fog.

VAZ042-051-052>054-056-191500-
NORTHERN VIRGINIA

CITY           SKY/WX    TMP DP  RH WIND       PRES   REMARKS
WASH NATIONAL  PTSUNNY   61  45  55 NW13G18   29.90R
DULLES         CLOUDY    57  43  59 NW17      29.91R
FORT BELVOIR   CLOUDY    60  44  56 NW10      29.90R
QUANTICO       CLOUDY    52  47  83 CALM      29.92R
FREDERICKSBRG* PTSUNNY   60  48  62 NW5       29.90R
STAFFORD*      PTSUNNY   59  51  74 CALM      29.95R
WARRENTON      CLOUDY    63  43  48 NW6       29.91R
CULPEPER*      CLOUDY    60  50  70 CALM      29.93R
MANASSAS*      CLOUDY    59  47  64 NW8       29.91R
LEESBURG*      CLOUDY    59  46  63 NW13      29.93R
WINCHESTER     CLOUDY    54  43  66 NW13      29.94R
FRONT ROYAL*   CLOUDY    54  50  87 CALM      29.93R
LURAY*         SUNNY     54  50  87 CALM      29.95R
$$

VAZ048-049-060>072-079>083-191500-
CENTRAL AND SOUTH CENTRAL VIRGINIA

CITY           SKY/WX    TMP DP  RH WIND       PRES   REMARKS
RICHMOND       MOSUNNY   58  41  53 NW3       29.90R
CHESTERFIELD*  FAIR      59  32  36 NW8       29.92R
PETERSBURG*    SUNNY     56  40  56 NW5       29.91R
HANOVER        SUNNY     59  39  47 NW6       29.91R
TAPPAHANNOCK*  PTSUNNY   61  30  31 NW6       29.89S
QUINTON*       FAIR      56  44  62 NW5G20    29.89R
CHARLOTTSVILLE SUNNY     62  43  49 VRB6      29.92R
GORDONSVILLE*  SUNNY     57  41  55 CALM      29.92R
ORANGE*        PTSUNNY   55  41  58 CALM      29.93R
LOUISA*        SUNNY     63  45  51 CALM      29.90S
BUMPASS*       PTSUNNY   54  38  55 CALM      29.90S
FARMVILLE*     SUNNY     60  41  49 NW3       29.92R
CREWE*         FAIR      58  39  49 NW7       29.92R
FORT PICKETT*  FAIR      57  32  38 NW9G18    29.92R
CHASE CITY*    FAIR      55  37  51 NW7       29.94R
CLARKSVILLE*   FAIR      55  37  50 NW9G16    29.93R
SOUTH HILL*    SUNNY     55  40  56 NW5       29.98R
LAWRENCEVILLE* FAIR      56  40  56 NW7       29.91R
EMPORIA*       SUNNY     54  41  62 W5        29.93R
$$

VAZ088>098-191500-
SOUTHEAST VIRGINIA

CITY           SKY/WX    TMP DP  RH WIND       PRES   REMARKS
NORFOLK        SUNNY     58  44  60 W8        29.88R
VIRGINIA BEACH MOSUNNY   59  44  57 NW8       29.88R
NORFOLK NAVAL  MOSUNNY   58  43  57 W9        29.90R
WEST POINT*    SUNNY     59  42  52 CALM      29.91R
SALUDA*        FAIR      57  44  59 NW5       29.88R
NEWPORT NEWS   SUNNY     58  44  60 W6        29.89R
LANGLEY AFB    SUNNY     59  44  58 VRB6      29.88R
FORT EUSTIS    SUNNY     56  44  62 W6        29.87R
WILLIAMSBURG*  MOSUNNY   57  45  62 NW6       29.90R
HR EXEC AP*    FAIR      57  45  62 W7        29.88S
FRANKLIN*      SUNNY     55  43  62 W7        29.90S
US460-WAKEFLD  SUNNY     56  44  64 NW3       29.90R
$$

VAZ020-022-025-037-045-191500-
WEST CENTRAL AND SOUTHWEST VIRGINIA

CITY           SKY/WX    TMP DP  RH WIND       PRES   REMARKS
STAUNTON*      SUNNY     53  43  67 CALM      29.98R
WAYNESBORO*    SUNNY     54  40  59 W6        29.96R
HOT SPRINGS VA CLOUDY    41  41 100 NW20      29.99R
LYNCHBURG      SUNNY     58  40  51 NW7       29.97R
DANVILLE       SUNNY     55  41  59 W8        29.97R
SOUTH BOSTON*  FAIR      58  39  50 NW13G18   29.95R
MARTINSVILLE   SUNNY     56  42  58 NW10G18   30.01R
ROANOKE        PTSUNNY   57  42  57 W8        30.01R
BLACKSBURG     CLOUDY    51  43  76 W9        30.06R
DUBLIN*        CLOUDY    52  43  72 NW7G18    30.04R
MARION*        CLOUDY    46  45  93 SW6       30.08R
HILLSVILLE*    CLOUDY    46  43  88 W6        30.02R
RICHLANDS*     CLOUDY    44  43  99 CALM      30.07R FOG
WISE*          CLOUDY    45  45 100 CALM      30.09R
ABINGDON*      CLOUDY    48  48 100 W3        30.08R FOG
$$

MDZ021>025-VAZ099-100-191500-
SOUTHERN MARYLAND AND THE DELMARVA PENINSULA

CITY           SKY/WX    TMP DP  RH WIND       PRES   REMARKS
PATUXENT RIVER PTSUNNY   56  42  59 NW7       29.88R
BAY BRIDGE APT CLOUDY    55  43  62 NW3       29.88R
LEONARDTOWN    CLOUDY    59  43  55 NW3       29.89S
DOVER          MOSUNNY   59  43  55 W7        29.85R
GEORGETOWN     CLOUDY    62  39  42 NW6       29.86R
EASTON         NOT AVBL
CAMBRIDGE      PTSUNNY   57  43  58 NW6       29.87S
SALISBURY      PTSUNNY   59  40  49 NW6       29.86R
OCEAN CITY     MOSUNNY   61  39  44 NW7       29.85S
WALLOPS ISLAND MOSUNNY   59  42  53 NW10      29.87R
ACCOMACK*      MOSUNNY   59  44  56 W12       29.86S
$$

NCZ012>017-030>032-191500-
NORTH CENTRAL AND EASTERN NORTH CAROLINA

CITY           SKY/WX    TMP DP  RH WIND       PRES   REMARKS
ROANOKE RAPIDS FAIR      55  43  62 W5        29.92R
RALEIGH        MOSUNNY   56  43  61 CALM      29.95R
ELIZABETH CITY SUNNY     57  45  64 W9        29.91R
AHOSKIE*         N/A     55  43  65 NW3       29.91S
EDENTON*       SUNNY     57  46  65 W6        29.91S
CURRITUCK*     SUNNY     58  44  59 W8        29.91R
KILL DEVIL HLS NOT AVBL
MANTEO         SUNNY     55  44  66 W5        29.90S
CAPE HATTERAS  PTSUNNY   59  46  62 W5        29.91R HAZE
TARBORO*       NOT AVBL
GOLDSBORO      SUNNY     56  47  73 W7        29.92R
WASHINGTON     SUNNY     56  44  64 W5        29.93R
GREENVILLE     SUNNY     59  45  58 NW5       29.94R
NEW BERN       MOSUNNY   57  46  66 W5        29.94R
WILMINGTON     SUNNY     55  48  77 W9        29.97R
$$

VAZ048-191500-
ELSEWHERE

CITY           SKY/WX    TMP DP  RH WIND       PRES   REMARKS
HARRISBURG PA  MOSUNNY   58  43  57 NW9       29.88R
BALTIMORE      CLOUDY    59  43  55 W8        29.88R
ANNAPOLIS      CLOUDY    59  42  53 NW6       29.88R
ANDREWS AFB    PTSUNNY   59  44  57 NW9       29.89R
PHILADELPHIA   CLOUDY    60  38  43 NW13      29.86R
HENDERSON NC   SUNNY     55  37  50 NW8       29.94R
GREENSBORO     MOSUNNY   56  44  64 NW12      29.98R
ROCKY MOUNT    SUNNY     56  43  61 NW9       29.92R
$$

VAZ100-191500-
MARINE

STATION/POSITION TIME  TEMP    WIND        PRES    WAVE   SWELL
                       AIR SEA DIR/SP/G            HT/PER HT/PER
                 (UTC) (F)     (DEG/KT/KT) (MB)    (FT/S) (FT/S)
CAPE MAY NJ      1348   50 40  320/  6/  8 1010.5R
LEWES DE         1348   53 40  310/  6/  6 1010.8R
OCEAN-CITY-INLET 1348   58 42  330/ 10/ 12 1011.2R
WACHAPREAGUE VA  1348   62 47  290/  2/  6 1011.1R
THOMAS POINT MD  1400   59 39  300/ 12/ 13   N/A
GOOSES REEF MD   1400   48 41  350/  4/  4 1012.4    0
COVE POINT MD    1348   57     350/ 10/ 11 1012.3R
SOLOMONS ISLAND  1348   57 43  330/  4/  6   N/A
BISHOPS HEAD MD  1348   47 42  280/  6/  6 1011.8R
PINEY POINT MD   1348          350/  6/  7   N/A
POTOMAC MD       1400   48 43  330/  4/  6 1010.8    0
CAMBRIDGE MD     1348   56 40  280/  5/  7 1010.9R
LEWISETTA VA     1348   57 42  330/  7/  8 1011.4R
RAPPAHANNOCK LGT 1348          290/ 10/ 11 1012.0R
YORK RVR RNG VA  1348   54     280/  8/  8 1011.2R
YORKTOWN VA      1348   54 45  300/  7/  9 1011.7R
JAMESTOWN VA     1400   50 48  290/  4/  6   N/A     0
DOMINION TERM VA 1348   51     300/  5/  6 1012.2R
KIPTOPEKE VA     1348      45  310/  3/  3   N/A
CHES BAY BRIDGE  1348   53 46  270/ 10/ 10 1011.8R
CAPE HENRY VA    1348   56     270/ 10/ 14   N/A
WILLOUBY STN VA  1342   53     250/  9/ 10 1012.8R
S CRANEY ISL VA  1348   56     270/  5/  7 1011.8R
CAPE HENRY BUOY  1342      46                N/A     2/ 6
OFFSHORE WE BUOY 1351      47                N/A     3/ 6
64NM E OF VA BCH 1350   53 51  250/ 10/ 12 1012.0R   3/ 6   3/ 6
DUCK PIER NC     1348   54 47  260/ 10/ 12 1012.0R
44100 DUCK FRF   1305      47                N/A     2/ 6
44056 DUCK FRF   1330      47                N/A     1/10
OREGON INLET NC  1342   52 51  220/  8/  8 1012.5R
HATTERAS NC      1348   57 56  250/  5/  7 1012.4R
DIAMOND SHLS NC  1350   62 67  280/  8/ 10 1012.7R   2/ 5   2/ 5
CAPE LOOKOUT NC  1400   56     280/  9/ 11 1013.0F
$$




USA.gov is the U.S. government's official web portal to all federal, state and local government web resources and services.